TimeCDT,TemperatureF,Dew PointF,Humidity,Sea Level PressureIn,VisibilityMPH,Wind Direction,Wind SpeedMPH,Gust SpeedMPH,PrecipitationIn,Events,Conditions,WindDirDegrees,DateUTC
12:54 AM,70.0,68.0,93,29.89,6.0,Calm,Calm,-,N/A,,Clear,0,2013-09-08 05:54:00
1:54 AM,72.0,69.1,91,29.90,8.0,NNE,6.9,-,N/A,,Clear,30,2013-09-08 06:54:00
2:54 AM,71.1,69.1,93,29.89,6.0,NNE,9.2,-,N/A,,Clear,30,2013-09-08 07:54:00
3:54 AM,72.0,70.0,93,29.89,8.0,ENE,11.5,-,N/A,,Clear,60,2013-09-08 08:54:00
4:54 AM,71.1,69.1,93,29.91,7.0,ENE,10.4,-,N/A,,Clear,60,2013-09-08 09:54:00
5:33 AM,71.6,68.0,88,29.93,7.0,ENE,9.2,-,N/A,,Mostly Cloudy,60,2013-09-08 10:33:00
5:54 AM,71.1,68.0,90,29.92,7.0,East,16.1,21.9,N/A,,Overcast,80,2013-09-08 10:54:00
6:54 AM,71.1,68.0,90,29.95,8.0,East,10.4,-,N/A,,Overcast,80,2013-09-08 11:54:00
7:54 AM,70.0,66.9,90,29.96,8.0,East,13.8,20.7,N/A,,Overcast,80,2013-09-08 12:54:00
8:54 AM,70.0,66.0,87,29.96,10.0,East,12.7,-,N/A,,Overcast,90,2013-09-08 13:54:00
9:54 AM,71.1,66.0,84,29.99,10.0,East,13.8,-,N/A,,Overcast,100,2013-09-08 14:54:00
10:54 AM,71.1,64.9,81,29.99,10.0,East,15.0,-,N/A,,Overcast,100,2013-09-08 15:54:00
11:54 AM,72.0,66.0,81,29.98,10.0,East,13.8,20.7,N/A,,Overcast,100,2013-09-08 16:54:00
12:54 PM,73.9,66.0,76,29.97,10.0,East,16.1,-,N/A,,Overcast,100,2013-09-08 17:54:00
1:54 PM,75.9,66.0,71,29.93,10.0,East,18.4,-,N/A,,Overcast,100,2013-09-08 18:54:00
2:54 PM,75.0,66.0,73,29.93,10.0,East,16.1,-,N/A,,Overcast,100,2013-09-08 19:54:00
3:54 PM,73.9,66.9,79,29.92,10.0,East,10.4,-,N/A,,Overcast,100,2013-09-08 20:54:00
4:54 PM,73.9,66.9,79,29.90,10.0,East,12.7,-,N/A,,Overcast,80,2013-09-08 21:54:00
5:36 PM,75.2,66.2,73,29.90,10.0,East,12.7,-,N/A,,Scattered Clouds,100,2013-09-08 22:36:00
5:54 PM,75.9,66.9,74,29.88,10.0,East,12.7,-,N/A,,Partly Cloudy,100,2013-09-08 22:54:00
6:54 PM,75.0,68.0,79,29.88,10.0,East,8.1,-,N/A,,Overcast,80,2013-09-08 23:54:00
7:54 PM,73.0,66.9,81,29.88,10.0,East,8.1,-,N/A,,Overcast,90,2013-09-09 00:54:00
8:54 PM,70.0,66.9,90,29.88,10.0,ENE,5.8,-,N/A,,Clear,70,2013-09-09 01:54:00
9:54 PM,69.1,66.9,93,29.88,9.0,East,8.1,-,N/A,,Clear,80,2013-09-09 02:54:00
10:54 PM,69.1,66.9,93,29.88,8.0,East,6.9,-,N/A,,Clear,100,2013-09-09 03:54:00
11:54 PM,69.1,66.9,93,29.87,7.0,East,6.9,-,N/A,,Clear,100,2013-09-09 04:54:00